Terminal Aerodrome Forecast
Issued by NWS

Home | Current Version | Previous Version | Text Only | Print | Product List | Glossary On
Versions: 1 2 3 4 5 6 7 8 9 10 11 12 13 14 15 16 17 18 19 20 21 22 23 24 25 26 27 28 29 30 31 32
000
FTUS41 KOKX 261514 AAA
TAFGON
TAF AMD
KGON 261514Z 2615/2712 03009KT 2SM RA BR OVC020
     FM261700 03011G17KT 3SM -RA OVC009
     FM261900 03016G22KT 2SM -RASNPL OVC007
      TEMPO 2620/2623 +RA
     FM262300 03024G35KT 1SM -SNRA OVC004
     FM270300 33018G26KT 6SM -RASN OVC015
     FM270800 32013KT P6SM BKN025=

USA.gov is the U.S. government's official web portal to all federal, state and local government web resources and services.